This demonstration page uses our WeatherBlox Daily Observations layout. Learn more.

38.88101, -77.10428

Hourly Observations for January 13, 2020

Temp ( °F °C ) Dew Point ( °F °C ) Humidity (%) Winds ( mph kmh ) Pressure ( in mb ) Visibility ( mi km ) Precip ( " mm )
12:52 am 00:52 Cloudy 48 8.9 39 3.9 71 71 NNE 8 13 30.36 1028 10 16.0934 0 0
1:52 am 01:52 Cloudy 47 8.3 38 3.3 71 71 NNE 9 15 30.36 1028 10 16.0934 0 0
2:52 am 02:52 Cloudy 46 7.8 38 3.3 73 73 NE 6 9 30.37 1028 10 16.0934 0 0
3:52 am 03:52 Cloudy 46 7.8 38 3.3 73 73 NNE 7 11 30.36 1028 10 16.0934 0 0
4:52 am 04:52 Cloudy 45 7.2 38 3.3 77 77 NNE 7 11 30.36 1028 10 16.0934 0 0
5:52 am 05:52 Cloudy 44 6.7 37 2.8 76 76 NE 6 9 30.35 1028 10 16.0934 0 0
6:31 am 06:31 Cloudy 44 6.7 37 2.8 76 76 NNE 5 7 30.36 1028 10 16.0934 0 0
6:52 am 06:52 Cloudy 46 7.8 38 3.3 73 73 NNE 5 7 30.35 1028 10 16.0934 0 0
7:52 am 07:52 Cloudy 47 8.3 39 3.9 74 74 NNE 5 7 30.36 1028 10 16.0934 0 0
8:52 am 08:52 Cloudy 47 8.3 39 3.9 74 74 NE 6 9 30.37 1029 10 16.0934 0 0
9:52 am 09:52 Cloudy 48 8.9 40 4.4 74 74 NE 5 7 30.39 1029 10 16.0934 0 0
10:52 am 10:52 Cloudy 50 10 40 4.4 68 68 NNW 5 7 30.4 1029 10 16.0934 0 0
11:28 am 11:28 Cloudy 51 10.6 40 4.4 66 66 NNW 6 9 30.38 1029 10 16.0934 0 0
11:52 am 11:52 Cloudy 52 11.1 41 5 66 66 N 3 6 30.37 1028 10 16.0934 0 0
12:52 pm 12:52 Cloudy 51 10.6 41 5 69 69 Calm 30.35 1028 10 16.0934 0 0
1:52 pm 13:52 Cloudy 52 11.1 41 5 66 66 NNE 6 9 30.33 1027 10 16.0934 0 0
2:52 pm 14:52 Cloudy 53 11.7 41 5 64 64 WNW 5 7 30.33 1027 10 16.0934 0 0
3:52 pm 15:52 Cloudy 53 11.7 41 5 64 64 Calm 30.34 1027 10 16.0934 0 0
4:52 pm 16:52 Cloudy 51 10.6 41 5 69 69 Calm 30.34 1027 10 16.0934 0 0
5:52 pm 17:52 Cloudy 50 10 41 5 71 71 S 6 9 30.36 1028 10 16.0934 0 0
6:52 pm 18:52 Cloudy 49 9.4 41 5 74 74 SSE 3 6 30.37 1028 10 16.0934 0 0
7:52 pm 19:52 Mostly Cloudy 47 8.3 42 5.6 83 83 S 3 6 30.38 1029 10 16.0934 0 0
8:52 pm 20:52 Mostly Cloudy 47 8.3 42 5.6 83 83 S 5 7 30.39 1029 10 16.0934 0 0
9:52 pm 21:52 Mostly Cloudy 45 7.2 42 5.6 90 90 Calm 30.39 1029 10 16.0934 0 0
10:52 pm 22:52 Cloudy 45 7.2 43 6.1 93 93 Calm 30.38 1029 10 16.0934 0 0
11:52 pm 23:52 Cloudy 45 7.2 42 5.6 90 90 Calm 30.37 1028 10 16.0934 0 0

Powered by AerisWeather